Weather in Sorø

Denmark     55°26′32″N   11°33′56″E
temp.,
°C
wind,
m/s
gust,
m/s
humid.,
%
clouds,
%
prec.,
mm/h
press.,
hPa
HPBL,
m
20 april, tue
tue2023:00+7ese23660 0.0 102225
02:00+6ene23580 0.0 102124
05:00+5ne33630 0.0 102024
08:00+7ne34610 0.0 1020125
11:00+12nne45442 0.0 1019718
14:00+15nne33405 0.0 10181300
17:00+14n32430 0.0 10161116
20:00+10nnw22585 0.0 101614
21 april, wed
wed2123:00+7w22500 0.0 101517
02:00+6wnw336941 0.0 101426
05:00+5wnw3890100 0.0 1013160
08:00+7wnw598674 0.0 1013567
11:00+8wnw7965100 0.0 10121171
14:00+10w9114745 0.0 10112173
17:00+8wnw10135577 0.4 10091982
20:00+5w101567100 0.4 10091150
22 april, thu
thu2223:00+5wnw9147599 0.1 1008683
02:00+4wnw7127995 0.3 1008501
05:00+4nw6138073 0.2 1009444
08:00+5nnw8146125 0.4 10101629
11:00+7nnw8124971 0.3 10122112
14:00+8nnw9154463 0.4 10132214
17:00+8nnw9164340 0.0 10142217
20:00+7nw7135019 0.0 1015655
23 april, fri
fri2323:00+5nw612625 0.0 1017366
02:00+4nw511700 0.0 1018291
05:00+3nnw38811 0.0 1019133
08:00+6nw23660 0.0 1021212
11:00+9w34442 0.0 10211433
14:00+10wsw56435 0.0 10211591
17:00+11wnw47485 0.0 10201495
20:00+8wnw59681 0.0 1020266
24 april, sat
sat2423:00+6wnw611792 0.0 1021359
02:00+4wnw510865 0.0 1020387
05:00+4wnw489171 0.0 1020232
08:00+6ne477127 0.0 1022853
11:00+8nne56420 0.0 10231435
14:00+9n67370 0.0 10241831
17:00+8n58322 0.0 10241359
20:00+5nnw34544 0.0 102581